Regional Weather Roundup
Issued by NWS

Home | Current Version | Previous Version | Graphics & Text | Print | Product List | Glossary Off
Versions: 1 2 3 4 5 6 7 8 9 10 11 12 13 14 15 16 17 18 19 20 21 22 23 24 25 26 27 28 29 30 31 32 33 34 35 36 37 38 39 40 41 42 43 44 45 46 47 48 49 50

000
ASUS43 KFSD 271302
RWRSD

WEATHER ROUNDUP FOR SOUTH DAKOTA
NATIONAL WEATHER SERVICE SIOUX FALLS SD
800 AM CDT SUN MAY 27 2018

NOTE: "FAIR" INDICATES FEW OR NO CLOUDS BELOW 12,000 FEET WITH NO
SIGNIFICANT WEATHER AND/OR OBSTRUCTIONS TO VISIBILITY.


SDZ001>005-009-010-012>017-271400-
NORTHWEST AND NORTH CENTRAL SOUTH DAKOTA

CITY           SKY/WX    TMP DP  RH WIND       PRES   REMARKS
BUFFALO          N/A     62  53  72 NE14      29.77R
FAITH            N/A     69  58  67 NE25G37   29.77R
MOBRIDGE       CLOUDY    73  60  63 N13G22    29.72F
$$

SDZ012>016-024>037-041>051-057-063-072>074-271400-
SOUTHWEST AND SOUTH CENTRAL SOUTH DAKOTA

CITY           SKY/WX    TMP DP  RH WIND       PRES   REMARKS
RAPID CTY ARPT PTSUNNY   65  55  70 N28G46    29.82S
PIERRE         PTSUNNY   70  60  70 SE9       29.71S
CUSTER         PTSUNNY   64  53  67 N17G30    29.94R
ELLSWORTH AFB  PTSUNNY   66  56  69 N30G40    29.82R
PHILIP         PTSUNNY   68  59  73 CALM      29.72S
PINE RIDGE     CLOUDY    71  54  54 W6        29.82R
SPEARFISH      FAIR      64  55  72 CALM      29.95S
WINNER         FAIR      74  57  55 S12       29.75R
$$

SDZ004>011-016>023-039-040-271400-
NORTHEAST SOUTH DAKOTA

CITY           SKY/WX    TMP DP  RH WIND       PRES   REMARKS
ABERDEEN       PTSUNNY   77  56  48 E9        29.77R
WATERTOWN      CLOUDY    71  54  54 S8        29.79S
BROOKINGS      CLOUDY    70  55  59 SE7       29.83R
SISSETON         N/A     67  62  84 VRB5      29.83S
$$

SDZ017-020-022-023-036>040-048>070-271400-
SOUTHEAST SOUTH DAKOTA

CITY           SKY/WX    TMP DP  RH WIND       PRES   REMARKS
SIOUX FALLS    CLOUDY    75  63  66 CALM      29.81R
HURON          CLOUDY    72  58  61 S8        29.76R
CHAMBERLAIN    CLOUDY    74  62  66 S10       29.75S
MITCHELL       PTSUNNY   73  62  68 SE6       29.78R
YANKTON        SUNNY     71  61  70 SE3       29.80R
$$

ABBREVIATIONS USED IN REMARKS
   TC - TEMPERATURE IN CELSIUS
  WCI - WIND CHILL INDEX
   HX - HEAT INDEX
  VSB - VISIBILITY





USA.gov is the U.S. government's official web portal to all federal, state and local government web resources and services.